Location: Bocianicha
(51.5066°N, 19.2563°E)
Time: 14:39:22
(UTC+00:00)

Okean 1 Rocket - Pass Details

Date: 15 June 2025
Orbit: 601 x 627 km, 82.5° (Epoch: 18 July)

Event Time Altitude Azimuth Distance (km) Brightness Sun altitude
Rises 00:27:56 0° 346° (NNW) 2,929 7.4 -11.7°
Reaches altitude 10° 00:30:12 10° 343° (NNW) 2,017 6.4 -11.6°
Maximum altitude 00:34:36 60° 264° (W) 724 3.2 -11.3°
Enters shadow 00:38:20 14° 187° (S) 1,754 4.8 -11.0°
